TimeCDT,TemperatureF,Dew PointF,Humidity,Sea Level PressureIn,VisibilityMPH,Wind Direction,Wind SpeedMPH,Gust SpeedMPH,PrecipitationIn,Events,Conditions,WindDirDegrees,DateUTC
12:18 AM,23.0,18.3,82,30.27,10.0,Calm,Calm,-,N/A,,Clear,0,2013-04-02 05:18:00
12:37 AM,22.6,18.0,82,30.27,10.0,Calm,Calm,-,N/A,,Clear,0,2013-04-02 05:37:00
12:57 AM,22.6,19.0,86,30.27,10.0,Calm,Calm,-,N/A,,Clear,0,2013-04-02 05:57:00
1:18 AM,21.2,18.3,89,30.27,10.0,Calm,Calm,-,N/A,,Clear,0,2013-04-02 06:18:00
1:38 AM,21.6,18.9,89,30.27,10.0,Calm,Calm,-,N/A,,Clear,0,2013-04-02 06:38:00
1:57 AM,21.6,19.2,91,30.27,10.0,Calm,Calm,-,N/A,,Clear,0,2013-04-02 06:57:00
2:17 AM,21.4,18.7,89,30.27,10.0,Calm,Calm,-,N/A,,Clear,0,2013-04-02 07:17:00
2:37 AM,19.9,17.8,91,30.26,10.0,Calm,Calm,-,N/A,,Clear,0,2013-04-02 07:37:00
2:58 AM,19.4,17.2,91,30.26,10.0,Calm,Calm,-,N/A,,Clear,0,2013-04-02 07:58:00
3:18 AM,19.9,17.8,91,30.26,10.0,Calm,Calm,-,N/A,,Clear,0,2013-04-02 08:18:00
3:37 AM,20.1,18.1,92,30.26,10.0,Calm,Calm,-,N/A,,Clear,0,2013-04-02 08:37:00
3:58 AM,20.3,18.3,92,30.26,10.0,Calm,Calm,-,N/A,,Clear,0,2013-04-02 08:58:00
4:18 AM,20.3,18.1,91,30.26,10.0,Calm,Calm,-,N/A,,Clear,0,2013-04-02 09:18:00
4:37 AM,19.8,17.6,91,30.26,10.0,Calm,Calm,-,N/A,,Clear,0,2013-04-02 09:37:00
4:58 AM,19.9,17.6,91,30.26,10.0,Calm,Calm,-,N/A,,Clear,0,2013-04-02 09:58:00
5:18 AM,19.6,17.2,91,30.26,10.0,Calm,Calm,-,N/A,,Clear,0,2013-04-02 10:18:00
5:37 AM,19.2,16.9,91,30.27,10.0,Calm,Calm,-,N/A,,Clear,0,2013-04-02 10:37:00
5:57 AM,19.2,16.9,91,30.27,10.0,Calm,Calm,-,N/A,,Clear,0,2013-04-02 10:57:00
6:18 AM,19.2,16.9,91,30.28,10.0,Calm,Calm,-,N/A,,Clear,0,2013-04-02 11:18:00
6:38 AM,19.4,17.4,92,30.28,10.0,Calm,Calm,-,N/A,,Clear,0,2013-04-02 11:38:00
6:58 AM,19.4,17.1,91,30.28,10.0,Calm,Calm,-,N/A,,Clear,0,2013-04-02 11:58:00
7:17 AM,19.6,17.1,90,30.29,10.0,Calm,Calm,-,N/A,,Clear,0,2013-04-02 12:17:00
7:38 AM,19.9,17.4,90,30.30,10.0,Calm,Calm,-,N/A,,Clear,0,2013-04-02 12:38:00
7:57 AM,21.6,18.9,89,30.30,10.0,Calm,Calm,-,N/A,,Clear,0,2013-04-02 12:57:00
8:17 AM,23.4,19.8,86,30.31,10.0,Calm,Calm,-,N/A,,Clear,0,2013-04-02 13:17:00
8:38 AM,24.8,20.3,83,30.31,10.0,Calm,Calm,-,N/A,,Clear,0,2013-04-02 13:38:00
8:58 AM,26.1,21.0,81,30.32,10.0,NW,5.8,-,N/A,,Clear,320,2013-04-02 13:58:00
9:37 AM,27.5,18.5,69,30.32,10.0,Calm,Calm,-,N/A,,Clear,0,2013-04-02 14:37:00
9:57 AM,28.4,18.5,66,30.32,10.0,Calm,Calm,-,N/A,,Clear,0,2013-04-02 14:57:00
10:18 AM,29.1,17.8,63,30.32,10.0,North,6.9,-,N/A,,Clear,10,2013-04-02 15:18:00
10:38 AM,29.1,18.1,64,30.32,10.0,North,5.8,-,N/A,,Clear,360,2013-04-02 15:38:00
10:58 AM,29.8,18.1,62,30.33,10.0,NNE,4.6,-,N/A,,Clear,20,2013-04-02 15:58:00
11:18 AM,30.2,18.1,61,30.33,10.0,NNE,5.8,-,N/A,,Clear,20,2013-04-02 16:18:00
11:38 AM,30.6,18.9,62,30.33,10.0,Calm,Calm,-,N/A,,Clear,0,2013-04-02 16:38:00
11:58 AM,31.1,19.0,61,30.33,10.0,North,4.6,-,N/A,,Clear,10,2013-04-02 16:58:00
12:18 PM,31.6,19.2,60,30.33,10.0,Calm,Calm,-,N/A,,Scattered Clouds,0,2013-04-02 17:18:00
12:37 PM,32.2,19.6,60,30.33,10.0,Calm,Calm,-,N/A,,Scattered Clouds,0,2013-04-02 17:37:00
12:57 PM,33.3,19.6,57,30.33,10.0,Calm,Calm,-,N/A,,Scattered Clouds,0,2013-04-02 17:57:00
1:18 PM,33.6,20.3,58,30.33,10.0,Calm,Calm,-,N/A,,Scattered Clouds,0,2013-04-02 18:18:00
1:38 PM,33.6,20.7,59,30.31,10.0,Calm,Calm,-,N/A,,Clear,0,2013-04-02 18:38:00
1:58 PM,35.2,21.7,58,30.31,10.0,Calm,Calm,-,N/A,,Clear,0,2013-04-02 18:58:00
2:17 PM,35.4,22.5,59,30.31,10.0,NW,8.1,-,N/A,,Clear,320,2013-04-02 19:17:00
2:38 PM,35.8,23.0,60,30.31,10.0,Calm,Calm,-,N/A,,Clear,0,2013-04-02 19:38:00
2:58 PM,36.3,23.0,59,30.30,10.0,NNE,9.2,-,N/A,,Scattered Clouds,20,2013-04-02 19:58:00
3:18 PM,35.4,21.9,58,30.30,10.0,North,10.4,-,N/A,,Scattered Clouds,10,2013-04-02 20:18:00
3:37 PM,36.7,23.4,59,30.30,10.0,NNE,12.7,-,N/A,,Scattered Clouds,30,2013-04-02 20:37:00
3:57 PM,36.5,23.2,59,30.30,10.0,North,8.1,-,N/A,,Scattered Clouds,10,2013-04-02 20:57:00
4:18 PM,37.0,24.3,60,30.30,10.0,North,10.4,-,N/A,,Scattered Clouds,10,2013-04-02 21:18:00
4:37 PM,35.6,23.4,61,30.30,10.0,NNE,8.1,-,N/A,,Mostly Cloudy,30,2013-04-02 21:37:00
4:52 PM,35.8,23.0,60,30.30,10.0,NNE,9.2,-,N/A,,Mostly Cloudy,30,2013-04-02 21:52:00
5:26 PM,35.8,22.6,59,30.30,10.0,NE,11.5,-,N/A,,Scattered Clouds,40,2013-04-02 22:26:00
5:37 PM,35.6,22.5,59,30.30,10.0,NNE,9.2,-,N/A,,Scattered Clouds,20,2013-04-02 22:37:00
5:58 PM,34.5,22.3,61,30.30,10.0,NE,9.2,-,N/A,,Clear,40,2013-04-02 22:58:00
6:18 PM,33.6,21.7,62,30.31,10.0,NE,9.2,-,N/A,,Clear,40,2013-04-02 23:18:00
6:37 PM,34.2,21.9,61,30.31,10.0,NNE,9.2,-,N/A,,Clear,30,2013-04-02 23:37:00
6:58 PM,33.8,21.6,61,30.31,10.0,NNE,9.2,-,N/A,,Clear,30,2013-04-02 23:58:00
7:18 PM,33.1,20.3,59,30.31,10.0,NNE,6.9,-,N/A,,Clear,20,2013-04-03 00:18:00
7:37 PM,32.2,20.5,62,30.31,10.0,NNE,5.8,-,N/A,,Clear,30,2013-04-03 00:37:00
7:58 PM,30.9,20.7,66,30.31,10.0,Calm,Calm,-,N/A,,Clear,0,2013-04-03 00:58:00
8:18 PM,29.3,20.1,69,30.30,10.0,Calm,Calm,-,N/A,,Clear,0,2013-04-03 01:18:00
8:38 PM,28.9,20.3,70,30.31,10.0,Calm,Calm,-,N/A,,Clear,0,2013-04-03 01:38:00
8:57 PM,28.4,21.0,74,30.31,10.0,Calm,Calm,-,N/A,,Clear,0,2013-04-03 01:57:00
9:18 PM,27.9,19.6,71,30.31,10.0,Calm,Calm,-,N/A,,Clear,0,2013-04-03 02:18:00
9:37 PM,27.7,19.6,72,30.32,10.0,Calm,Calm,-,N/A,,Clear,0,2013-04-03 02:37:00
9:58 PM,26.4,19.9,77,30.33,10.0,Calm,Calm,-,N/A,,Clear,0,2013-04-03 02:58:00
10:18 PM,26.8,20.1,76,30.33,10.0,Calm,Calm,-,N/A,,Clear,0,2013-04-03 03:18:00
10:38 PM,26.1,20.1,78,30.33,10.0,Calm,Calm,-,N/A,,Clear,0,2013-04-03 03:38:00
10:57 PM,24.4,19.6,82,30.33,10.0,Calm,Calm,-,N/A,,Clear,0,2013-04-03 03:57:00
11:17 PM,26.8,20.5,77,30.33,10.0,Calm,Calm,-,N/A,,Clear,0,2013-04-03 04:17:00
11:38 PM,25.7,20.5,81,30.33,10.0,Calm,Calm,-,N/A,,Clear,0,2013-04-03 04:38:00
11:58 PM,25.2,20.1,81,30.33,10.0,Calm,Calm,-,N/A,,Clear,0,2013-04-03 04:58:00